Starlink 11076

operational
NORAD ID: 58709 Int'l Des: 2024-002 Owner: SPXS Country: US Constellation: starlink
LEOCIRCULAR

About Starlink 11076

Description loading...

Live Position

Loading 3D Globe...

Upcoming Passes

Altitude History

Altitude vs Time

uPlot chart will show altitude changes over time

Two-Line Element Set

1 58709U 24002E 26102.97377242 .00017136 00000-0 14617-3 0 9999
2 58709 53.1568 104.8954 0000745 87.2621 272.8482 15.69681075131828
Epoch: Apr 12, 2026 • Age: 5 hours

Current Status

Altitude 360.3 km
Velocity 7.69 km/s
Sub-Earth Point 3.27°N, 9.46°E
Launch Date Jan 3, 2024
Age 2.2 years
Type internet

Technical Details

Classification Payload
Mass 960.00 kg
Dry Mass 910.00 kg
Total Mass 960.00 kg
Length 0.30 m
Diameter 4.10 m
Span 29.00 m
Shape Box + pan
Manufacturer SPXS
Bus Type Starlink V2MD
Phase Status In Orbit
Owner/State SPXS/US

Large Constellations

Loading constellations...